AirNav   Textron
 
 802 users online  

ND33 Dawson Mediport Heliport
Dawson, North Dakota, USA


FAA INFORMATION EFFECTIVE 14 SEPTEMBER 2017

Location

FAA Identifier: ND33
Lat/Long: 46-52-36.0000N / 099-45-08.4000W
46-52.600000N / 099-45.140000W
46.8766667 / -99.7523333
(estimated)
Elevation: 1750 ft. / 533 m (estimated)
Variation: 08E (2000)
Time zone: UTC -5 (UTC -6 during Standard Time)
Zip code: 58428

Heliport Operations

Heliport use: Private use. Permission required prior to landing
Activation date: 11/2002
Control tower: no
ARTCC: MINNEAPOLIS CENTER
FSS: GRAND FORKS FLIGHT SERVICE STATION
Attendance: UNATNDD
Segmented circle: no

Nearby radio navigation aids

VOR radial/distance  VOR name  Freq  Var
BISr068/38.1BISMARCK VOR/DME116.5012E

Heliport Services

Runway Information

Helipad H1

Dimensions: 30 x 30 ft. / 9 x 9 m
Surface: asphalt
Traffic pattern: leftleft

Heliport Ownership and Management from official FAA records

Ownership: Privately-owned
Owner: DAWSON FIRST RESPONDER TEM
P.O. BOX 214
DAWSON, ND 58428
Phone 701-327-4434
Manager: MONA KAPP
DAWSON FIRST RESPONDER TEAM, P.O. BOX 214
DAWSON, ND 58428
Phone 701-327-4434

Instrument Procedures

There are no published instrument procedures at ND33.

Some nearby airports with instrument procedures:

KBIS - Bismarck Municipal Airport (41 nm W)
46D - Carrington Municipal Airport (42 nm NE)
KJMS - Jamestown Regional Airport (44 nm E)
7L2 - Linton Municipal Airport (44 nm SW)
Y19 - Mandan Municipal Airport (47 nm W)
 
Loc | Ops | Rwys | IFR | FBO | Links
Com | Nav | Svcs | Stats | Notes


 
Area around ND33 (Dawson Mediport Heliport)
 
Road maps at: MapQuest Bing Google
 
Aerial photo
No photo
 
Sectional chart

 
Airport distance calculator
Flying to Dawson Mediport Heliport? Find the distance to fly.

From to ND33

Sunrise and sunset
Times for 23-Sep-2017
 Local
(UTC-5)
 Zulu
(UTC)
Morning civil twilight06:5811:58
Sunrise07:2812:28
Sunset19:3500:35
Evening civil twilight20:0501:05

Current date and time
Zulu (UTC)  23-Sep-2017 22:35:37
Local (UTC-5)  23-Sep-2017 17:35:37
 
METAR
KBIS 
41nm W 
232152Z AUTO 01009KT 10SM OVC033 14/07 A3007 RMK AO2 SLP188 T01390072
K46D 
42nm NE 
232215Z AUTO 03006KT 10SM OVC027 14/08 A3009 RMK AO2
K7L2 
44nm SW 
232215Z AUTO 36012G18KT 10SM OVC029 14/07 A3002 RMK AO2
KJMS 
45nm E 
232203Z AUTO 02011KT 10SM SCT029 BKN036 16/09 A3003 RMK AO2 T01560089
KY19 
47nm W 
232215Z AUTO 02009G14KT 10SM OVC031 12/07 A3006 RMK AO2
TAF
KBIS 
41nm W 
231727Z 2318/2418 01007KT P6SM BKN015 OVC035 FM232100 03007KT P6SM VCSH BKN025 OVC050 FM240000 03006KT P6SM SHRA BKN020 OVC035 FM240600 36009KT P6SM -SHRA OVC008
KJMS 
45nm E 
231727Z 2318/2418 36012G20KT P6SM BKN020 OVC030 FM232200 03010KT P6SM BKN025 OVC045 FM240200 03007KT P6SM RA BKN020 OVC030 FM240600 02010KT 6SM SHRA BKN008 OVC015
NOTAMs
Click for the latest NOTAMs
NOTAMs are issued by the DoD/FAA and will open in a separate window not controlled by AirNav.

 

 
 

Would you like to see your business listed on this page?

 If your business provides an interesting product or service to pilots, flight crews, aircraft, or users of the Dawson Mediport Heliport, you should consider listing it here.  To start the listing process, click on the button below
 
Add a business
 

Other Pages about Dawson Mediport Heliport

Update a link
 
Copyright © AirNav, LLC. All rights reserved. Privacy Policy  Contact